Location: SE Lincoln, NE
(40.7805°N, 96.6275°W)
Time: 07:13:44
(UTC-05:00)

Meteor 1-27 Rocket - Pass Details

Date: 15 May 2021
Orbit: 829 x 910 km, 81.3° (Epoch: 20 June)

Event Time Altitude Azimuth Distance (km) Brightness Sun altitude
Exits shadow 23:21:08 22° 215° (SW) 1,856 5.2 -23.7°
Maximum altitude 23:24:49 53° 283° (WNW) 1,101 4.4 -24.1°
Drops below altitude 10° 23:30:37 10° 0° (N) 2,601 7.0 -24.6°
Sets 23:33:11 0° 5° (N) 3,549 7.8 -24.9°
